This demonstration page uses our WeatherBlox Daily Observations layout. Learn more.

Left ArrowRight Arrow

Hourly Observations for June 20, 2019

Temp ( °F °C ) Dew Point ( °F °C ) Humidity (%) Winds ( mph kmh ) Pressure ( in mb ) Visibility ( mi km ) Precip ( " mm )
12:51 am 00:51 Clear 76 24.4 17 -8.3 11 11 WNW 10 17 29.75 1007 10 16 0.00 0.00
1:51 am 01:51 Clear 70 21.1 17 -8.3 13 13 WNW 7 11 29.76 1008 10 16 0.00 0.00
2:51 am 02:51 Clear 73 22.8 18 -7.8 12 12 NNW 12 19 29.75 1008 10 16 0.00 0.00
3:51 am 03:51 Clear 72 22.2 18 -7.8 13 13 NNW 5 7 29.77 1008 10 16 0.00 0.00
4:51 am 04:51 Clear 64 17.8 17 -8.3 16 16 SE 6 9 29.79 1009 10 16 0.00 0.00
5:51 am 05:51 Sunny 64 17.8 16 -8.9 15 15 SE 5 7 29.80 1009 10 16 0.00 0.00
6:51 am 06:51 Sunny 70 21.1 17 -8.3 13 13 SE 6 9 29.82 1010 10 16 0.00 0.00
7:51 am 07:51 Sunny 77 25 17 -8.3 10 10 SE 5 7 29.82 1010 10 16 0.00 0.00
8:51 am 08:51 Sunny 83 28.3 19 -7.2 9 9 Calm 29.81 1010 10 16 0.00 0.00
9:51 am 09:51 Sunny 87 30.6 20 -6.7 8 8 WNW 3 6 29.79 1009 10 16 0.00 0.00
10:51 am 10:51 Sunny 90 32.2 20 -6.7 8 8 VRB 5 7 29.78 1008 10 16 0.00 0.00
11:51 am 11:51 Sunny 92 33.3 20 -6.7 7 7 Calm 29.75 1008 10 16 0.00 0.00
12:51 pm 12:51 Sunny 96 35.6 18 -7.8 6 6 Calm 29.72 1007 10 16 0.00 0.00
1:51 pm 13:51 Mostly Sunny 98 36.7 16 -8.9 5 5 undefined N/A 29.70 1006 10 16 0.00 0.00
2:51 pm 14:51 Partly Cloudy 99 37.2 14 -10 4 4 W 10 17 29.66 1005 10 16 0.00 0.00
3:51 pm 15:51 Mostly Cloudy 100 37.8 11 -11.7 4 4 WNW 12 19 29.64 1004 10 16 0.00 0.00
4:51 pm 16:51 Partly Cloudy 100 37.8 -3 -19.4 2 2 W 17 28 29.63 1003 10 16 0.00 0.00
5:51 pm 17:51 Partly Cloudy 97 36.1 -3 -19.4 2 2 WSW 16 26 29.63 1003 10 16 0.00 0.00
6:51 pm 18:51 Partly Cloudy 95 35 12 -11.1 5 5 W 13 20 29.63 1003 10 16 0.00 0.00
7:51 pm 19:51 Clear 89 31.7 16 -8.9 7 7 WNW 10 17 29.64 1004 10 16 0.00 0.00
8:51 pm 20:51 Clear 83 28.3 17 -8.3 8 8 NW 8 13 29.66 1004 10 16 0.00 0.00
9:51 pm 21:51 Clear 79 26.1 18 -7.8 10 10 NNW 8 13 29.67 1005 10 16 0.00 0.00
10:51 pm 22:51 Clear 81 27.2 18 -7.8 9 9 NW 12 19 29.66 1004 10 16 0.00 0.00
11:51 pm 23:51 Clear 80 26.7 21 -6.1 11 11 NW 14 22 29.65 1004 10 16 0.00 0.00

Powered by AerisWeather